TimeEDT,TemperatureF,Dew PointF,Humidity,Sea Level PressureIn,VisibilityMPH,Wind Direction,Wind SpeedMPH,Gust SpeedMPH,PrecipitationIn,Events,Conditions,WindDirDegrees,DateUTC
12:15 AM,39.2,33.8,81,29.90,10.0,WSW,3.5,-,N/A,,Overcast,250,2013-10-23 04:15:00
12:35 AM,39.2,33.8,81,29.89,10.0,WSW,3.5,-,N/A,Rain,Light Rain,240,2013-10-23 04:35:00
12:55 AM,39.2,33.8,81,29.89,7.0,Calm,Calm,-,N/A,Rain,Light Rain,0,2013-10-23 04:55:00
1:15 AM,37.4,33.8,87,29.88,10.0,WSW,3.5,-,N/A,,Drizzle,250,2013-10-23 05:15:00
1:35 AM,37.4,33.8,87,29.87,10.0,Calm,Calm,-,N/A,,Overcast,0,2013-10-23 05:35:00
1:55 AM,37.4,33.8,87,29.87,10.0,Calm,Calm,-,N/A,,Overcast,0,2013-10-23 05:55:00
2:15 AM,37.4,33.8,87,29.86,10.0,Calm,Calm,-,N/A,,Mostly Cloudy,0,2013-10-23 06:15:00
2:35 AM,37.4,33.8,87,29.86,10.0,Calm,Calm,-,N/A,,Overcast,0,2013-10-23 06:35:00
2:55 AM,37.4,33.8,87,29.86,10.0,Calm,Calm,-,N/A,,Overcast,0,2013-10-23 06:55:00
3:15 AM,37.4,33.8,87,29.85,10.0,Calm,Calm,-,N/A,,Overcast,0,2013-10-23 07:15:00
3:35 AM,37.4,33.8,87,29.84,10.0,Calm,Calm,-,N/A,,Mostly Cloudy,0,2013-10-23 07:35:00
3:55 AM,35.6,33.8,93,29.83,10.0,Calm,Calm,-,N/A,,Mostly Cloudy,0,2013-10-23 07:55:00
4:15 AM,35.6,33.8,93,29.82,10.0,Calm,Calm,-,N/A,,Scattered Clouds,0,2013-10-23 08:15:00
4:35 AM,35.6,32.0,87,29.82,10.0,Calm,Calm,-,N/A,,Clear,0,2013-10-23 08:35:00
4:55 AM,35.6,33.8,93,29.82,7.0,Calm,Calm,-,N/A,,Clear,0,2013-10-23 08:55:00
5:15 AM,35.6,32.0,87,29.82,7.0,Calm,Calm,-,N/A,,Clear,0,2013-10-23 09:15:00
5:35 AM,33.8,32.0,93,29.82,7.0,Calm,Calm,-,N/A,,Clear,0,2013-10-23 09:35:00
5:55 AM,33.8,32.0,93,29.82,5.0,West,3.5,-,N/A,,Clear,280,2013-10-23 09:55:00
6:15 AM,33.8,32.0,93,29.82,5.0,Calm,Calm,-,N/A,,Clear,0,2013-10-23 10:15:00
6:35 AM,33.8,32.0,93,29.83,5.0,Calm,Calm,-,N/A,,Clear,0,2013-10-23 10:35:00
6:55 AM,33.8,32.0,93,29.83,4.0,West,3.5,-,N/A,,Clear,280,2013-10-23 10:55:00
7:15 AM,32.0,32.0,100,29.84,3.0,Calm,Calm,-,N/A,,Clear,0,2013-10-23 11:15:00
7:35 AM,32.0,32.0,100,29.83,3.0,Calm,Calm,-,N/A,,Clear,0,2013-10-23 11:35:00
7:55 AM,32.0,32.0,100,29.84,3.0,Calm,Calm,-,N/A,,Clear,0,2013-10-23 11:55:00
8:15 AM,32.0,32.0,100,29.85,2.0,West,3.5,-,N/A,,Clear,280,2013-10-23 12:15:00
8:35 AM,32.0,32.0,100,29.85,2.5,West,3.5,-,N/A,,Clear,270,2013-10-23 12:35:00
8:55 AM,33.8,32.0,93,29.87,2.5,Calm,Calm,-,N/A,,Clear,0,2013-10-23 12:55:00
9:15 AM,33.8,32.0,93,29.87,3.0,West,3.5,-,N/A,,Clear,280,2013-10-23 13:15:00
9:35 AM,35.6,32.0,87,29.87,5.0,West,3.5,-,N/A,,Clear,280,2013-10-23 13:35:00
9:55 AM,37.4,33.8,87,29.87,5.0,NW,4.6,-,N/A,,Scattered Clouds,320,2013-10-23 13:55:00
10:15 AM,37.4,33.8,87,29.87,7.0,WNW,4.6,-,N/A,,Scattered Clouds,300,2013-10-23 14:15:00
10:35 AM,41.0,35.6,81,29.88,10.0,NW,5.8,-,N/A,,Mostly Cloudy,310,2013-10-23 14:35:00
10:55 AM,41.0,35.6,81,29.88,10.0,NNW,5.8,-,N/A,,Overcast,330,2013-10-23 14:55:00
11:15 AM,42.8,35.6,76,29.88,10.0,NNW,3.5,-,N/A,,Mostly Cloudy,340,2013-10-23 15:15:00
11:35 AM,44.6,35.6,71,29.88,10.0,NW,6.9,-,N/A,,Mostly Cloudy,310,2013-10-23 15:35:00
11:55 AM,44.6,33.8,66,29.88,10.0,NNW,4.6,-,N/A,,Mostly Cloudy,340,2013-10-23 15:55:00
12:15 PM,46.4,32.0,57,29.88,10.0,West,6.9,-,N/A,,Mostly Cloudy,280,2013-10-23 16:15:00
12:35 PM,44.6,32.0,61,29.88,10.0,NW,6.9,-,N/A,,Mostly Cloudy,310,2013-10-23 16:35:00
12:55 PM,46.4,33.8,62,29.88,10.0,WNW,5.8,-,N/A,,Mostly Cloudy,290,2013-10-23 16:55:00
1:15 PM,44.6,30.2,57,29.88,10.0,WNW,8.1,-,N/A,,Mostly Cloudy,300,2013-10-23 17:15:00
1:35 PM,46.4,32.0,57,29.87,10.0,West,6.9,-,N/A,,Mostly Cloudy,280,2013-10-23 17:35:00
1:55 PM,48.2,32.0,54,29.87,10.0,West,8.1,-,N/A,,Overcast,280,2013-10-23 17:55:00
2:15 PM,48.2,30.2,50,29.87,10.0,NW,6.9,-,N/A,,Mostly Cloudy,320,2013-10-23 18:15:00
2:35 PM,46.4,32.0,57,29.87,10.0,West,6.9,-,N/A,,Scattered Clouds,260,2013-10-23 18:35:00
2:55 PM,46.4,28.4,50,29.87,10.0,WNW,6.9,-,N/A,,Scattered Clouds,300,2013-10-23 18:55:00
3:15 PM,48.2,28.4,46,29.87,10.0,WNW,3.5,-,N/A,,Mostly Cloudy,290,2013-10-23 19:15:00
3:35 PM,46.4,28.4,50,29.87,10.0,WNW,10.4,-,N/A,,Overcast,300,2013-10-23 19:35:00
3:55 PM,46.4,26.6,46,29.87,10.0,West,6.9,-,N/A,,Overcast,280,2013-10-23 19:55:00
4:15 PM,46.4,26.6,46,29.88,10.0,WNW,5.8,-,N/A,,Mostly Cloudy,290,2013-10-23 20:15:00
4:35 PM,46.4,26.6,46,29.88,10.0,WNW,5.8,-,N/A,,Mostly Cloudy,300,2013-10-23 20:35:00
4:55 PM,48.2,28.4,46,29.89,10.0,WNW,6.9,-,N/A,,Overcast,300,2013-10-23 20:55:00
5:15 PM,42.8,32.0,66,29.89,10.0,North,8.1,-,N/A,,Overcast,360,2013-10-23 21:15:00
5:35 PM,42.8,32.0,66,29.90,10.0,Calm,Calm,-,N/A,,Overcast,0,2013-10-23 21:35:00
5:55 PM,42.8,32.0,66,29.92,10.0,WNW,8.1,17.3,N/A,Rain,Light Rain,290,2013-10-23 21:55:00
6:15 PM,39.2,33.8,81,29.92,10.0,NW,5.8,-,N/A,,Overcast,320,2013-10-23 22:15:00
6:35 PM,41.0,33.8,76,29.93,10.0,NW,5.8,-,N/A,,Overcast,310,2013-10-23 22:35:00
6:55 PM,39.2,33.8,81,29.93,10.0,NW,4.6,-,N/A,,Overcast,320,2013-10-23 22:55:00
7:15 PM,39.2,33.8,81,29.93,10.0,NW,4.6,-,N/A,,Overcast,320,2013-10-23 23:15:00
7:35 PM,37.4,33.8,87,29.94,10.0,Calm,Calm,-,N/A,,Overcast,0,2013-10-23 23:35:00
7:55 PM,39.2,33.8,81,29.95,10.0,West,6.9,-,N/A,,Overcast,280,2013-10-23 23:55:00
8:15 PM,39.2,33.8,81,29.95,10.0,West,9.2,-,N/A,,Overcast,280,2013-10-24 00:15:00
8:35 PM,39.2,32.0,75,29.95,10.0,WNW,6.9,-,N/A,,Overcast,290,2013-10-24 00:35:00
8:55 PM,37.4,32.0,81,29.94,10.0,West,6.9,-,N/A,,Overcast,270,2013-10-24 00:55:00
9:15 PM,37.4,32.0,81,29.94,10.0,West,6.9,-,N/A,,Overcast,260,2013-10-24 01:15:00
9:35 PM,37.4,32.0,81,29.95,10.0,West,5.8,-,N/A,,Overcast,270,2013-10-24 01:35:00
9:55 PM,37.4,32.0,81,29.95,10.0,West,6.9,-,N/A,,Overcast,270,2013-10-24 01:55:00
10:15 PM,37.4,32.0,81,29.95,10.0,West,6.9,-,N/A,,Mostly Cloudy,270,2013-10-24 02:15:00
10:35 PM,37.4,32.0,81,29.95,10.0,WSW,6.9,-,N/A,,Mostly Cloudy,250,2013-10-24 02:35:00
10:55 PM,35.6,32.0,87,29.95,10.0,WSW,6.9,-,N/A,,Scattered Clouds,240,2013-10-24 02:55:00
11:15 PM,35.6,32.0,87,29.96,10.0,West,5.8,-,N/A,,Scattered Clouds,270,2013-10-24 03:15:00
11:35 PM,35.6,32.0,87,29.96,10.0,West,5.8,-,N/A,,Mostly Cloudy,280,2013-10-24 03:35:00
11:55 PM,35.6,32.0,87,29.95,10.0,West,6.9,-,N/A,,Overcast,280,2013-10-24 03:55:00